sat.trackr.live / text

‹ back to catalog

STARLINK-31114

NORAD 58766 · 2024-011B

PAYLOAD ACTIVE UNKNOWN

§ Identity

Operator
Country
US
Launch date
2024-01-14
Launch site
AFWTR
Launch vehicle
Mass (kg)
RCS (m²)

Purposes: comms

External: N2YO · Heavens-Above · Gunter

§ Orbital elements

Epoch: 2026-09-20T04:13:27.141312Z

Period
93.85 min
Inclination
53.1637°
Eccentricity
0.0000473
Mean motion
15.34384079 rev/d
Perigee alt
462.4 km
Apogee alt
463.1 km
Semi-major
6,840.9 km
B*
-2.0553e-5
RAAN
187.0208°
Arg perigee
147.8196°
Mean anomaly
212.2836°
Rev number
15,008

§ Raw data

STARLINK-311141 58766U 24011B   26263.17600858 -.00001070  00000+0 -20553-4 0  99922 58766  53.1637 187.0208 0000473 147.8196 212.2836 15.34384079150087

JSON: /api/v1/satellites/58766 · /tle

For live sub-satellite position, see the globe view (requires WebGL).

§ Visibility from observer

Set your observer location to see the next 7 days of passes ≥ 10°. The values pass through the URL so the page stays shareable.

No JS? Fill the form by hand. The geolocation button needs JavaScript.